| time (UTC) | temp C | wind direction | speed KPH | gust KPH | rain 1hr cm | rain 24hr cm | rain mn cm | humidity % | barometer mb |
| 20260831231101 | 36 | 80 | 4.8 | 4.8 | 0.00 | 0.00 | 0.00 | 31 | 1014.6 |
| 20260831230557 | 36 | 187 | 4.8 | 6.4 | 0.00 | 0.00 | 0.00 | 31 | 1014.5 |
| 20260831230058 | 37 | 232 | 3.2 | 4.8 | 0.00 | 0.00 | 0.00 | 31 | 1014.5 |
| 20260831225553 | 37 | 212 | 4.8 | 6.4 | 0.00 | 0.00 | 0.00 | 29 | 1014.7 |
| 20260831225053 | 37 | 146 | 6.4 | 8.0 | 0.00 | 0.00 | 0.00 | 31 | 1014.6 |
| 20260831224548 | 37 | 126 | 6.4 | 6.4 | 0.00 | 0.00 | 0.00 | 30 | 1014.5 |
| 20260831224043 | 37 | 196 | 8.0 | 11.3 | 0.00 | 0.00 | 0.00 | 30 | 1014.3 |
| 20260831223538 | 38 | 260 | 6.4 | 8.0 | 0.00 | 0.00 | 0.00 | 28 | 1014.5 |
| 20260831223035 | 38 | 239 | 3.2 | 4.8 | 0.00 | 0.00 | 0.00 | 28 | 1014.5 |
| 20260831222531 | 37 | 259 | 0.0 | 0.0 | 0.00 | 0.00 | 0.00 | 30 | 1014.7 |
| 20260831222030 | 37 | 222 | 4.8 | 4.8 | 0.00 | 0.00 | 0.00 | 30 | 1014.7 |
| 20260831221526 | 38 | 247 | 0.0 | 1.6 | 0.00 | 0.00 | 0.00 | 29 | 1014.6 |
| 20260831221021 | 39 | 268 | 1.6 | 1.6 | 0.00 | 0.00 | 0.00 | 28 | 1014.7 |
| 20260831220516 | 38 | 265 | 3.2 | 4.8 | 0.00 | 0.00 | 0.00 | 27 | 1014.9 |
| 20260831220012 | 38 | 219 | 4.8 | 6.4 | 0.00 | 0.00 | 0.00 | 29 | 1014.7 |
| 20260831215507 | 37 | 204 | 6.4 | 8.0 | 0.00 | 0.00 | 0.00 | 30 | 1014.7 |
| 20260831215003 | 37 | 216 | 3.2 | 4.8 | 0.00 | 0.00 | 0.00 | 29 | 1014.8 |
| 20260831214500 | 38 | 202 | 4.8 | 6.4 | 0.00 | 0.00 | 0.00 | 30 | 1014.8 |
| 20260831213956 | 37 | 178 | 1.6 | 1.6 | 0.00 | 0.00 | 0.00 | 30 | 1014.9 |
| 20260831213452 | 37 | 355 | 3.2 | 4.8 | 0.00 | 0.00 | 0.00 | 30 | 1014.9 |
| 20260831212952 | 37 | 191 | 14.5 | 16.1 | 0.00 | 0.00 | 0.00 | 29 | 1014.9 |
| 20260831212449 | 38 | 164 | 11.3 | 16.1 | 0.00 | 0.00 | 0.00 | 28 | 1014.9 |
| 20260831211948 | 37 | 266 | 1.6 | 1.6 | 0.00 | 0.00 | 0.00 | 29 | 1014.8 |
| 20260831211444 | 37 | 184 | 12.9 | 17.7 | 0.00 | 0.00 | 0.00 | 29 | 1014.7 |
| 20260831210942 | 37 | 210 | 9.7 | 11.3 | 0.00 | 0.00 | 0.00 | 31 | 1015.1 |
| 20260831210438 | 38 | 198 | 6.4 | 6.4 | 0.00 | 0.00 | 0.00 | 31 | 1015.1 |
| 20260831205934 | 38 | 127 | 4.8 | 6.4 | 0.00 | 0.00 | 0.00 | 29 | 1015.2 |
| 20260831205429 | 38 | 223 | 6.4 | 8.0 | 0.00 | 0.00 | 0.00 | 29 | 1015.3 |
| 20260831204925 | 37 | 250 | 3.2 | 4.8 | 0.00 | 0.00 | 0.00 | 29 | 1015.1 |
| 20260831204424 | 39 | 301 | 4.8 | 6.4 | 0.00 | 0.00 | 0.00 | 28 | 1015.4 |
| 20260831203923 | 39 | 269 | 0.0 | 1.6 | 0.00 | 0.00 | 0.00 | 28 | 1015.3 |
| 20260831203418 | 38 | 260 | 1.6 | 1.6 | 0.00 | 0.00 | 0.00 | 29 | 1015.4 |
| 20260831202916 | 38 | 155 | 6.4 | 6.4 | 0.00 | 0.00 | 0.00 | 30 | 1015.4 |
| 20260831202412 | 37 | 273 | 3.2 | 4.8 | 0.00 | 0.00 | 0.00 | 29 | 1015.4 |
| 20260831201911 | 38 | 237 | 0.0 | 1.6 | 0.00 | 0.00 | 0.00 | 29 | 1015.4 |
| 20260831201410 | 37 | 210 | 3.2 | 6.4 | 0.00 | 0.00 | 0.00 | 31 | 1015.5 |
| 20260831200906 | 38 | 186 | 9.7 | 12.9 | 0.00 | 0.00 | 0.00 | 30 | 1015.7 |
| 20260831200401 | 37 | 107 | 9.7 | 11.3 | 0.00 | 0.00 | 0.00 | 30 | 1016.1 |
| 20260831195856 | 38 | 250 | 3.2 | 4.8 | 0.00 | 0.00 | 0.00 | 31 | 1015.6 |
| 20260831195352 | 38 | 257 | 1.6 | 1.6 | 0.00 | 0.00 | 0.00 | 30 | 1015.8 |
| 20260831194847 | 38 | 291 | 4.8 | 6.4 | 0.00 | 0.00 | 0.00 | 30 | 1015.9 |
| 20260831194342 | 37 | 212 | 4.8 | 4.8 | 0.00 | 0.00 | 0.00 | 31 | 1015.9 |
| 20260831193841 | 37 | 255 | 6.4 | 8.0 | 0.00 | 0.00 | 0.00 | 31 | 1015.9 |
| 20260831193337 | 37 | 235 | 4.8 | 6.4 | 0.00 | 0.00 | 0.00 | 31 | 1015.9 |
| 20260831192832 | 37 | 190 | 9.7 | 11.3 | 0.00 | 0.00 | 0.00 | 31 | 1016.2 |
| 20260831192331 | 37 | 197 | 9.7 | 12.9 | 0.00 | 0.00 | 0.00 | 31 | 1016.1 |
| 20260831191827 | 37 | 205 | 8.0 | 12.9 | 0.00 | 0.00 | 0.00 | 31 | 1016.2 |
| 20260831191323 | 37 | 213 | 4.8 | 6.4 | 0.00 | 0.00 | 0.00 | 31 | 1016.4 |
| 20260831190819 | 37 | 286 | 4.8 | 6.4 | 0.00 | 0.00 | 0.00 | 30 | 1016.4 |
| 20260831190319 | 38 | 159 | 1.6 | 4.8 | 0.00 | 0.00 | 0.00 | 30 | 1016.5 |
| 20260831185819 | 39 | 148 | 6.4 | 8.0 | 0.00 | 0.00 | 0.00 | 29 | 1016.5 |
| 20260831185314 | 38 | 315 | 6.4 | 8.0 | 0.00 | 0.00 | 0.00 | 30 | 1016.5 |
| 20260831184813 | 37 | 268 | 1.6 | 1.6 | 0.00 | 0.00 | 0.00 | 32 | 1016.7 |
| 20260831184309 | 36 | 204 | 6.4 | 16.1 | 0.00 | 0.00 | 0.00 | 33 | 1016.6 |
| 20260831183804 | 37 | 196 | 6.4 | 6.4 | 0.00 | 0.00 | 0.00 | 33 | 1016.8 |
| 20260831183303 | 38 | 202 | 12.9 | 19.3 | 0.00 | 0.00 | 0.00 | 30 | 1016.8 |
| 20260831182803 | 38 | 261 | 6.4 | 8.0 | 0.00 | 0.00 | 0.00 | 30 | 1016.7 |
| 20260831182258 | 38 | 266 | 4.8 | 4.8 | 0.00 | 0.00 | 0.00 | 31 | 1016.9 |
| 20260831181753 | 38 | 304 | 4.8 | 6.4 | 0.00 | 0.00 | 0.00 | 32 | 1016.9 |
| 20260831181249 | 36 | 211 | 6.4 | 8.0 | 0.00 | 0.00 | 0.00 | 33 | 1017.0 |
| 20260831180748 | 35 | 299 | 3.2 | 4.8 | 0.00 | 0.00 | 0.00 | 36 | 1017.1 |
| 20260831180243 | 37 | 121 | 6.4 | 6.4 | 0.00 | 0.00 | 0.00 | 35 | 1017.2 |
| 20260831175743 | 37 | 19 | 1.6 | 1.6 | 0.00 | 0.00 | 0.00 | 34 | 1017.2 |
| 20260831175239 | 36 | 172 | 3.2 | 4.8 | 0.00 | 0.00 | 0.00 | 35 | 1017.4 |
| 20260831174734 | 37 | 234 | 8.0 | 11.3 | 0.00 | 0.00 | 0.00 | 33 | 1017.4 |
| 20260831174230 | 36 | 244 | 3.2 | 4.8 | 0.00 | 0.00 | 0.00 | 35 | 1017.6 |
| 20260831173729 | 36 | 236 | 3.2 | 4.8 | 0.00 | 0.00 | 0.00 | 36 | 1017.4 |
| 20260831173229 | 36 | 291 | 4.8 | 6.4 | 0.00 | 0.00 | 0.00 | 36 | 1017.6 |
| 20260831172724 | 36 | 277 | 6.4 | 8.0 | 0.00 | 0.00 | 0.00 | 36 | 1017.6 |
| 20260831172220 | 36 | 196 | 1.6 | 1.6 | 0.00 | 0.00 | 0.00 | 36 | 1017.6 |
| 20260831171714 | 36 | 302 | 3.2 | 4.8 | 0.00 | 0.00 | 0.00 | 36 | 1017.7 |
| 20260831171212 | 36 | 284 | 4.8 | 6.4 | 0.00 | 0.00 | 0.00 | 35 | 1017.8 |
| 20260831170708 | 36 | 286 | 3.2 | 4.8 | 0.00 | 0.00 | 0.00 | 37 | 1017.8 |
| 20260831170204 | 36 | 321 | 3.2 | 6.4 | 0.00 | 0.00 | 0.00 | 38 | 1017.9 |
| 20260831165700 | 36 | 232 | 3.2 | 4.8 | 0.00 | 0.00 | 0.00 | 38 | 1018.2 |
| 20260831165156 | 36 | 259 | 1.6 | 4.8 | 0.00 | 0.00 | 0.00 | 38 | 1018.2 |
| 20260831164652 | 35 | 245 | 3.2 | 4.8 | 0.00 | 0.00 | 0.00 | 39 | 1018.0 |
| 20260831164148 | 35 | 285 | 3.2 | 4.8 | 0.00 | 0.00 | 0.00 | 40 | 1018.1 |
| 20260831163643 | 35 | 273 | 3.2 | 6.4 | 0.00 | 0.00 | 0.00 | 40 | 1018.3 |
| 20260831163138 | 35 | 256 | 3.2 | 4.8 | 0.00 | 0.00 | 0.00 | 40 | 1018.2 |
| 20260831162637 | 35 | 312 | 4.8 | 6.4 | 0.00 | 0.00 | 0.00 | 40 | 1018.2 |
| 20260831162135 | 35 | 277 | 3.2 | 6.4 | 0.00 | 0.00 | 0.00 | 40 | 1018.3 |
| 20260831161631 | 35 | 233 | 4.8 | 6.4 | 0.00 | 0.00 | 0.00 | 40 | 1018.2 |
| 20260831161128 | 34 | 344 | 4.8 | 6.4 | 0.00 | 0.00 | 0.00 | 42 | 1018.3 |
| 20260831160627 | 33 | 261 | 6.4 | 8.0 | 0.00 | 0.00 | 0.00 | 43 | 1018.2 |
| 20260831160123 | 34 | 303 | 6.4 | 6.4 | 0.00 | 0.00 | 0.00 | 41 | 1018.2 |
| 20260831155622 | 35 | 272 | 4.8 | 6.4 | 0.00 | 0.00 | 0.00 | 42 | 1018.2 |
| 20260831155118 | 34 | 174 | 4.8 | 6.4 | 0.00 | 0.00 | 0.00 | 44 | 1018.1 |
| 20260831154614 | 35 | 291 | 6.4 | 8.0 | 0.00 | 0.00 | 0.00 | 42 | 1018.2 |
| 20260831154114 | 35 | 171 | 6.4 | 6.4 | 0.00 | 0.00 | 0.00 | 41 | 1017.9 |
| 20260831153613 | 34 | 257 | 4.8 | 6.4 | 0.00 | 0.00 | 0.00 | 43 | 1018.0 |
| 20260831153110 | 34 | 232 | 3.2 | 4.8 | 0.00 | 0.00 | 0.00 | 43 | 1018.1 |
| 20260831152605 | 33 | 356 | 1.6 | 1.6 | 0.00 | 0.00 | 0.00 | 45 | 1018.0 |
| 20260831152101 | 33 | 282 | 1.6 | 4.8 | 0.00 | 0.00 | 0.00 | 45 | 1017.8 |
| 20260831151600 | 32 | 192 | 3.2 | 4.8 | 0.00 | 0.00 | 0.00 | 48 | 1017.9 |
| 20260831151054 | 33 | 163 | 3.2 | 6.4 | 0.00 | 0.00 | 0.00 | 46 | 1018.2 |
| 20260831150549 | 32 | 201 | 3.2 | 4.8 | 0.00 | 0.00 | 0.00 | 48 | 1017.9 |
| 20260831150046 | 32 | 194 | 4.8 | 6.4 | 0.00 | 0.00 | 0.00 | 49 | 1018.2 |
| 20260831145540 | 32 | 206 | 4.8 | 6.4 | 0.00 | 0.00 | 0.00 | 51 | 1017.9 |
| 20260831145036 | 31 | 181 | 3.2 | 4.8 | 0.00 | 0.00 | 0.00 | 52 | 1017.9 |
| 20260831144531 | 31 | 245 | 4.8 | 6.4 | 0.00 | 0.00 | 0.00 | 52 | 1017.9 |
| 20260831144027 | 31 | 179 | 6.4 | 8.0 | 0.00 | 0.00 | 0.00 | 54 | 1017.9 |
| 20260831143521 | 30 | 202 | 6.4 | 8.0 | 0.00 | 0.00 | 0.00 | 54 | 1018.0 |
| 20260831143017 | 30 | 150 | 8.0 | 8.0 | 0.00 | 0.00 | 0.00 | 55 | 1018.1 |
| 20260831142514 | 30 | 230 | 4.8 | 6.4 | 0.00 | 0.00 | 0.00 | 56 | 1017.9 |
| 20260831142009 | 30 | 184 | 1.6 | 1.6 | 0.00 | 0.00 | 0.00 | 56 | 1017.9 |
| 20260831141507 | 30 | 181 | 3.2 | 4.8 | 0.00 | 0.00 | 0.00 | 56 | 1018.2 |
| 20260831141002 | 29 | 171 | 3.2 | 4.8 | 0.00 | 0.00 | 0.00 | 57 | 1018.0 |
| 20260831140502 | 29 | 207 | 4.8 | 6.4 | 0.00 | 0.00 | 0.00 | 57 | 1018.1 |
| 20260831140001 | 30 | 152 | 3.2 | 4.8 | 0.00 | 0.00 | 0.00 | 56 | 1018.1 |
| 20260831135500 | 28 | 218 | 0.0 | 0.0 | 0.00 | 0.00 | 0.00 | 58 | 1017.9 |
| 20260831134955 | 28 | 228 | 0.0 | 0.0 | 0.00 | 0.00 | 0.00 | 57 | 1018.0 |
| 20260831134452 | 27 | 221 | 0.0 | 0.0 | 0.00 | 0.00 | 0.00 | 60 | 1017.9 |
| 20260831133951 | 27 | 221 | 1.6 | 1.6 | 0.00 | 0.00 | 0.00 | 61 | 1018.0 |
| 20260831133446 | 27 | 293 | 0.0 | 1.6 | 0.00 | 0.00 | 0.00 | 61 | 1017.9 |
| 20260831132941 | 26 | 256 | 0.0 | 1.6 | 0.00 | 0.00 | 0.00 | 62 | 1017.7 |
| 20260831132437 | 26 | 226 | 0.0 | 0.0 | 0.00 | 0.00 | 0.00 | 63 | 1017.7 |
| 20260831131936 | 26 | 246 | 0.0 | 0.0 | 0.00 | 0.00 | 0.00 | 65 | 1017.8 |
| 20260831131431 | 25 | 264 | 0.0 | 0.0 | 0.00 | 0.00 | 0.00 | 68 | 1017.5 |
| 20260831130927 | 25 | 259 | 0.0 | 1.6 | 0.00 | 0.00 | 0.00 | 69 | 1017.6 |
| 20260831130422 | 24 | 233 | 0.0 | 0.0 | 0.00 | 0.00 | 0.00 | 71 | 1017.5 |
| 20260831125921 | 23 | 271 | 0.0 | 0.0 | 0.00 | 0.00 | 0.00 | 74 | 1017.4 |
| 20260831125416 | 22 | 277 | 0.0 | 0.0 | 0.00 | 0.00 | 0.00 | 77 | 1017.4 |
| 20260831124912 | 22 | 251 | 0.0 | 0.0 | 0.00 | 0.00 | 0.00 | 79 | 1017.6 |
| 20260831124408 | 22 | 299 | 0.0 | 0.0 | 0.00 | 0.00 | 0.00 | 79 | 1017.3 |
| 20260831123908 | 21 | 301 | 0.0 | 0.0 | 0.00 | 0.00 | 0.00 | 79 | 1017.3 |
| 20260831123407 | 21 | 297 | 1.6 | 1.6 | 0.00 | 0.00 | 0.00 | 81 | 1017.2 |
| 20260831122902 | 20 | 285 | 0.0 | 0.0 | 0.00 | 0.00 | 0.00 | 83 | 1017.2 |
| 20260831122357 | 20 | 281 | 0.0 | 0.0 | 0.00 | 0.00 | 0.00 | 84 | 1016.9 |
| 20260831121852 | 20 | 267 | 0.0 | 0.0 | 0.00 | 0.00 | 0.00 | 83 | 1016.9 |
| 20260831121348 | 20 | 282 | 0.0 | 0.0 | 0.00 | 0.00 | 0.00 | 83 | 1016.9 |
| 20260831120843 | 20 | 282 | 0.0 | 0.0 | 0.00 | 0.00 | 0.00 | 84 | 1016.8 |
| 20260831120338 | 20 | 293 | 0.0 | 0.0 | 0.00 | 0.00 | 0.00 | 83 | 1016.6 |
| 20260831115833 | 20 | 282 | 0.0 | 0.0 | 0.00 | 0.00 | 0.00 | 82 | 1016.8 |
| 20260831115330 | 20 | 283 | 0.0 | 0.0 | 0.00 | 0.00 | 0.00 | 82 | 1016.7 |
| 20260831114828 | 20 | 274 | 0.0 | 0.0 | 0.00 | 0.00 | 0.00 | 83 | 1016.4 |
| 20260831114327 | 20 | 264 | 0.0 | 0.0 | 0.00 | 0.00 | 0.00 | 82 | 1016.5 |
| 20260831113823 | 20 | 295 | 0.0 | 1.6 | 0.00 | 0.00 | 0.00 | 81 | 1016.5 |
| 20260831113323 | 20 | 266 | 0.0 | 0.0 | 0.00 | 0.00 | 0.00 | 81 | 1016.3 |
| 20260831112818 | 20 | 266 | 0.0 | 0.0 | 0.00 | 0.00 | 0.00 | 79 | 1016.3 |
| 20260831112313 | 20 | 272 | 0.0 | 0.0 | 0.00 | 0.00 | 0.00 | 79 | 1016.3 |
| 20260831111808 | 21 | 266 | 0.0 | 0.0 | 0.00 | 0.00 | 0.00 | 78 | 1016.4 |
| 20260831111304 | 21 | 269 | 0.0 | 0.0 | 0.00 | 0.00 | 0.00 | 77 | 1016.3 |
| 20260831110800 | 21 | 268 | 0.0 | 0.0 | 0.00 | 0.00 | 0.00 | 76 | 1016.1 |
| 20260831110255 | 21 | 261 | 0.0 | 0.0 | 0.00 | 0.00 | 0.00 | 75 | 1016.2 |
| 20260831105753 | 22 | 259 | 0.0 | 0.0 | 0.00 | 0.00 | 0.00 | 74 | 1016.1 |
| 20260831105249 | 22 | 260 | 0.0 | 0.0 | 0.00 | 0.00 | 0.00 | 74 | 1016.1 |
| 20260831104749 | 22 | 263 | 0.0 | 0.0 | 0.00 | 0.00 | 0.00 | 72 | 1016.2 |
| 20260831104246 | 22 | 241 | 0.0 | 0.0 | 0.00 | 0.00 | 0.00 | 71 | 1016.2 |
| 20260831103746 | 23 | 247 | 0.0 | 1.6 | 0.00 | 0.00 | 0.00 | 70 | 1016.1 |
| 20260831103242 | 23 | 225 | 0.0 | 1.6 | 0.00 | 0.00 | 0.00 | 69 | 1016.3 |
| 20260831102741 | 23 | 249 | 0.0 | 0.0 | 0.00 | 0.00 | 0.00 | 68 | 1015.9 |
| 20260831102236 | 23 | 249 | 0.0 | 0.0 | 0.00 | 0.00 | 0.00 | 67 | 1015.9 |
| 20260831101732 | 23 | 262 | 0.0 | 0.0 | 0.00 | 0.00 | 0.00 | 66 | 1015.9 |
| 20260831101227 | 23 | 220 | 0.0 | 0.0 | 0.00 | 0.00 | 0.00 | 67 | 1016.1 |
| 20260831100723 | 23 | 141 | 1.6 | 1.6 | 0.00 | 0.00 | 0.00 | 65 | 1015.9 |
| 20260831100219 | 23 | 192 | 0.0 | 1.6 | 0.00 | 0.00 | 0.00 | 65 | 1016.1 |
| 20260831095718 | 24 | 240 | 0.0 | 1.6 | 0.00 | 0.00 | 0.00 | 65 | 1015.8 |
| 20260831095213 | 24 | 179 | 1.6 | 1.6 | 0.00 | 0.00 | 0.00 | 64 | 1015.8 |
| 20260831094708 | 24 | 195 | 3.2 | 4.8 | 0.00 | 0.00 | 0.00 | 64 | 1015.9 |
| 20260831094204 | 24 | 102 | 3.2 | 4.8 | 0.00 | 0.00 | 0.00 | 62 | 1015.9 |
| 20260831093659 | 24 | 216 | 1.6 | 1.6 | 0.00 | 0.00 | 0.00 | 63 | 1015.9 |
| 20260831093155 | 24 | 261 | 0.0 | 0.0 | 0.00 | 0.00 | 0.00 | 64 | 1015.9 |
| 20260831092651 | 24 | 225 | 1.6 | 1.6 | 0.00 | 0.00 | 0.00 | 64 | 1015.9 |
| 20260831092147 | 24 | 185 | 3.2 | 4.8 | 0.00 | 0.00 | 0.00 | 62 | 1015.7 |
| 20260831091645 | 25 | 228 | 1.6 | 4.8 | 0.00 | 0.00 | 0.00 | 61 | 1015.7 |
| 20260831091142 | 25 | 222 | 0.0 | 1.6 | 0.00 | 0.00 | 0.00 | 61 | 1015.8 |
| 20260831090637 | 25 | 251 | 0.0 | 0.0 | 0.00 | 0.00 | 0.00 | 61 | 1015.7 |
| 20260831090133 | 25 | 215 | 1.6 | 1.6 | 0.00 | 0.00 | 0.00 | 61 | 1015.6 |
| 20260831085628 | 25 | 223 | 1.6 | 1.6 | 0.00 | 0.00 | 0.00 | 60 | 1015.5 |
| 20260831085123 | 25 | 133 | 3.2 | 4.8 | 0.00 | 0.00 | 0.00 | 60 | 1015.4 |
| 20260831084619 | 25 | 97 | 4.8 | 4.8 | 0.00 | 0.00 | 0.00 | 60 | 1015.5 |
| 20260831084115 | 25 | 197 | 0.0 | 1.6 | 0.00 | 0.00 | 0.00 | 60 | 1015.6 |
| 20260831083611 | 25 | 208 | 1.6 | 1.6 | 0.00 | 0.00 | 0.00 | 60 | 1015.6 |
| 20260831083106 | 25 | 99 | 1.6 | 1.6 | 0.00 | 0.00 | 0.00 | 59 | 1015.6 |
| 20260831082604 | 25 | 103 | 3.2 | 4.8 | 0.00 | 0.00 | 0.00 | 59 | 1015.5 |
| 20260831082059 | 25 | 125 | 3.2 | 4.8 | 0.00 | 0.00 | 0.00 | 59 | 1015.5 |
| 20260831081555 | 25 | 202 | 3.2 | 4.8 | 0.00 | 0.00 | 0.00 | 58 | 1015.4 |
| 20260831081051 | 25 | 182 | 3.2 | 4.8 | 0.00 | 0.00 | 0.00 | 58 | 1015.4 |
| 20260831080546 | 25 | 232 | 3.2 | 4.8 | 0.00 | 0.00 | 0.00 | 60 | 1015.2 |
| 20260831080041 | 25 | 243 | 0.0 | 1.6 | 0.00 | 0.00 | 0.00 | 62 | 1015.3 |
| 20260831075536 | 25 | 125 | 3.2 | 4.8 | 0.00 | 0.00 | 0.00 | 60 | 1015.4 |
| 20260831075032 | 25 | 96 | 3.2 | 4.8 | 0.00 | 0.00 | 0.00 | 60 | 1015.3 |
| 20260831074531 | 25 | 179 | 0.0 | 1.6 | 0.00 | 0.00 | 0.00 | 61 | 1015.3 |
| 20260831074031 | 25 | 216 | 0.0 | 1.6 | 0.00 | 0.00 | 0.00 | 60 | 1015.3 |
| 20260831073526 | 25 | 83 | 1.6 | 1.6 | 0.00 | 0.00 | 0.00 | 61 | 1015.4 |
| 20260831073025 | 25 | 240 | 0.0 | 0.0 | 0.00 | 0.00 | 0.00 | 60 | 1015.4 |
| 20260831072521 | 24 | 208 | 0.0 | 1.6 | 0.00 | 0.00 | 0.00 | 61 | 1015.3 |
| 20260831072017 | 23 | 236 | 0.0 | 0.0 | 0.00 | 0.00 | 0.00 | 64 | 1015.4 |
| 20260831071516 | 24 | 236 | 0.0 | 1.6 | 0.00 | 0.00 | 0.00 | 65 | 1015.3 |
| 20260831071012 | 24 | 211 | 0.0 | 1.6 | 0.00 | 0.00 | 0.00 | 64 | 1015.4 |
| 20260831070510 | 24 | 221 | 0.0 | 1.6 | 0.00 | 0.00 | 0.00 | 62 | 1015.3 |
| 20260831070005 | 24 | 258 | 0.0 | 0.0 | 0.00 | 0.00 | 0.00 | 62 | 1015.4 |
| 20260831065503 | 24 | 213 | 1.6 | 1.6 | 0.00 | 0.00 | 0.00 | 65 | 1015.5 |
| 20260831064957 | 24 | 163 | 1.6 | 1.6 | 0.00 | 0.00 | 0.00 | 63 | 1015.4 |
| 20260831064452 | 24 | 247 | 0.0 | 0.0 | 0.00 | 0.00 | 0.00 | 65 | 1015.6 |
| 20260831063948 | 24 | 243 | 0.0 | 0.0 | 0.00 | 0.00 | 0.00 | 64 | 1015.6 |
| 20260831063443 | 24 | 220 | 1.6 | 1.6 | 0.00 | 0.00 | 0.00 | 64 | 1015.4 |
| 20260831062937 | 24 | 158 | 1.6 | 1.6 | 0.00 | 0.00 | 0.00 | 64 | 1015.4 |
| 20260831062433 | 24 | 143 | 1.6 | 1.6 | 0.00 | 0.00 | 0.00 | 65 | 1015.3 |
| 20260831061932 | 25 | 223 | 1.6 | 1.6 | 0.00 | 0.00 | 0.00 | 65 | 1015.4 |
| 20260831061430 | 25 | 192 | 1.6 | 1.6 | 0.00 | 0.00 | 0.00 | 65 | 1015.6 |
| 20260831060927 | 25 | 97 | 1.6 | 1.6 | 0.00 | 0.00 | 0.00 | 66 | 1015.6 |
| 20260831060421 | 25 | 234 | 0.0 | 1.6 | 0.00 | 0.00 | 0.00 | 62 | 1015.5 |
| 20260831055920 | 25 | 167 | 3.2 | 4.8 | 0.00 | 0.00 | 0.00 | 63 | 1015.6 |
| 20260831055415 | 25 | 88 | 3.2 | 4.8 | 0.00 | 0.00 | 0.00 | 64 | 1015.5 |
| 20260831054911 | 25 | 236 | 1.6 | 1.6 | 0.00 | 0.00 | 0.00 | 63 | 1015.5 |
| 20260831054407 | 25 | 177 | 1.6 | 1.6 | 0.00 | 0.00 | 0.00 | 62 | 1015.5 |
| 20260831053906 | 25 | 183 | 1.6 | 4.8 | 0.00 | 0.00 | 0.00 | 63 | 1015.6 |
| 20260831053404 | 25 | 167 | 3.2 | 4.8 | 0.00 | 0.00 | 0.00 | 62 | 1015.5 |
| 20260831052859 | 25 | 80 | 1.6 | 1.6 | 0.00 | 0.00 | 0.00 | 65 | 1015.3 |
| 20260831052358 | 25 | 208 | 1.6 | 1.6 | 0.00 | 0.00 | 0.00 | 66 | 1015.5 |
| 20260831051856 | 25 | 108 | 1.6 | 1.6 | 0.00 | 0.00 | 0.00 | 65 | 1015.3 |
| 20260831051354 | 24 | 203 | 1.6 | 1.6 | 0.00 | 0.00 | 0.00 | 65 | 1015.5 |
| 20260831050850 | 24 | 116 | 1.6 | 1.6 | 0.00 | 0.00 | 0.00 | 67 | 1015.4 |
| 20260831050344 | 25 | 113 | 1.6 | 4.8 | 0.00 | 0.00 | 0.00 | 65 | 1015.4 |
| 20260831045844 | 25 | 228 | 0.0 | 1.6 | 0.00 | 0.00 | 0.00 | 62 | 1015.3 |
| 20260831045343 | 25 | 228 | 0.0 | 1.6 | 0.00 | 0.00 | 0.00 | 64 | 1015.4 |
| 20260831044838 | 26 | 229 | 0.0 | 1.6 | 0.00 | 0.00 | 0.00 | 61 | 1015.3 |
| 20260831044338 | 26 | 248 | 0.0 | 0.0 | 0.00 | 0.00 | 0.00 | 60 | 1015.3 |
| 20260831043835 | 26 | 203 | 1.6 | 1.6 | 0.00 | 0.00 | 0.00 | 59 | 1015.4 |
| 20260831043334 | 26 | 219 | 0.0 | 0.0 | 0.00 | 0.00 | 0.00 | 59 | 1015.2 |
| 20260831042829 | 26 | 232 | 0.0 | 0.0 | 0.00 | 0.00 | 0.00 | 61 | 1015.0 |
| 20260831042328 | 26 | 178 | 1.6 | 1.6 | 0.00 | 0.00 | 0.00 | 59 | 1015.2 |
| 20260831041824 | 26 | 181 | 1.6 | 1.6 | 0.00 | 0.00 | 0.00 | 60 | 1014.9 |
| 20260831041323 | 25 | 220 | 1.6 | 1.6 | 0.00 | 0.00 | 0.00 | 63 | 1015.1 |
| 20260831040818 | 26 | 125 | 1.6 | 1.6 | 0.00 | 0.00 | 0.00 | 60 | 1015.0 |
| 20260831040318 | 26 | 165 | 0.0 | 1.6 | 0.00 | 0.00 | 0.00 | 59 | 1015.0 |
| 20260831035816 | 25 | 156 | 1.6 | 1.6 | 0.00 | 0.00 | 0.00 | 59 | 1014.8 |
| 20260831035316 | 25 | 74 | 0.0 | 1.6 | 0.00 | 0.00 | 0.00 | 62 | 1014.9 |
| 20260831034815 | 26 | 288 | 0.0 | 0.0 | 0.00 | 0.00 | 0.00 | 59 | 1014.8 |
| 20260831034311 | 25 | 242 | 0.0 | 0.0 | 0.00 | 0.00 | 0.00 | 60 | 1014.8 |
| 20260831033807 | 25 | 154 | 3.2 | 6.4 | 0.00 | 0.00 | 0.00 | 61 | 1014.8 |
| 20260831033306 | 25 | 237 | 0.0 | 0.0 | 0.00 | 0.00 | 0.00 | 63 | 1014.6 |
| 20260831032802 | 24 | 254 | 0.0 | 0.0 | 0.00 | 0.00 | 0.00 | 64 | 1014.6 |
| 20260831032256 | 23 | 257 | 0.0 | 0.0 | 0.00 | 0.00 | 0.00 | 71 | 1014.6 |
| 20260831031752 | 23 | 244 | 0.0 | 0.0 | 0.00 | 0.00 | 0.00 | 73 | 1014.7 |
| 20260831031251 | 23 | 249 | 0.0 | 0.0 | 0.00 | 0.00 | 0.00 | 74 | 1014.7 |
| 20260831030746 | 23 | 260 | 0.0 | 0.0 | 0.00 | 0.00 | 0.00 | 74 | 1014.7 |
| 20260831030244 | 23 | 224 | 0.0 | 0.0 | 0.00 | 0.00 | 0.00 | 73 | 1014.5 |
| 20260831025743 | 23 | 262 | 0.0 | 0.0 | 0.00 | 0.00 | 0.00 | 72 | 1014.5 |
| 20260831025238 | 23 | 243 | 0.0 | 0.0 | 0.00 | 0.00 | 0.00 | 71 | 1014.7 |
| 20260831024734 | 23 | 255 | 0.0 | 0.0 | 0.00 | 0.00 | 0.00 | 71 | 1014.3 |
| 20260831024233 | 23 | 265 | 0.0 | 0.0 | 0.00 | 0.00 | 0.00 | 70 | 1014.6 |
| 20260831023732 | 23 | 278 | 0.0 | 0.0 | 0.00 | 0.00 | 0.00 | 69 | 1014.5 |
| 20260831023231 | 23 | 265 | 0.0 | 0.0 | 0.00 | 0.00 | 0.00 | 68 | 1014.3 |
| 20260831022726 | 24 | 273 | 0.0 | 0.0 | 0.00 | 0.00 | 0.00 | 69 | 1014.2 |
| 20260831022220 | 24 | 265 | 0.0 | 0.0 | 0.00 | 0.00 | 0.00 | 68 | 1014.1 |
| 20260831021720 | 25 | 254 | 0.0 | 0.0 | 0.00 | 0.00 | 0.00 | 67 | 1014.2 |
| 20260831021214 | 25 | 263 | 0.0 | 0.0 | 0.00 | 0.00 | 0.00 | 66 | 1014.1 |
| 20260831020711 | 25 | 221 | 0.0 | 0.0 | 0.00 | 0.00 | 0.00 | 66 | 1014.1 |
| 20260831020210 | 25 | 275 | 0.0 | 0.0 | 0.00 | 0.00 | 0.00 | 65 | 1014.0 |
| 20260831015706 | 25 | 272 | 0.0 | 0.0 | 0.00 | 0.00 | 0.00 | 63 | 1014.0 |
| 20260831015206 | 26 | 228 | 0.0 | 0.0 | 0.00 | 0.00 | 0.00 | 63 | 1013.7 |
| 20260831014701 | 26 | 299 | 0.0 | 0.0 | 0.00 | 0.00 | 0.00 | 62 | 1013.8 |
| 20260831014156 | 26 | 259 | 0.0 | 0.0 | 0.00 | 0.00 | 0.00 | 61 | 1013.7 |
| 20260831013652 | 26 | 283 | 0.0 | 0.0 | 0.00 | 0.00 | 0.00 | 60 | 1013.6 |
| 20260831013152 | 27 | 269 | 0.0 | 0.0 | 0.00 | 0.00 | 0.00 | 59 | 1013.5 |
| 20260831012647 | 27 | 301 | 0.0 | 0.0 | 0.00 | 0.00 | 0.00 | 56 | 1013.6 |
| 20260831012142 | 28 | 264 | 0.0 | 0.0 | 0.00 | 0.00 | 0.00 | 55 | 1013.6 |
| 20260831011641 | 28 | 283 | 0.0 | 0.0 | 0.00 | 0.00 | 0.00 | 53 | 1013.6 |
| 20260831011137 | 30 | 242 | 0.0 | 0.0 | 0.00 | 0.00 | 0.00 | 52 | 1013.4 |
| 20260831010633 | 30 | 238 | 0.0 | 0.0 | 0.00 | 0.00 | 0.00 | 48 | 1013.5 |
| 20260831010128 | 30 | 193 | 0.0 | 0.0 | 0.00 | 0.00 | 0.00 | 46 | 1013.3 |
| 20260831005628 | 30 | 222 | 0.0 | 1.6 | 0.00 | 0.00 | 0.00 | 45 | 1013.3 |
| 20260831005124 | 30 | 202 | 1.6 | 1.6 | 0.00 | 0.00 | 0.00 | 45 | 1013.3 |
| 20260831004619 | 30 | 239 | 1.6 | 1.6 | 0.00 | 0.00 | 0.00 | 49 | 1013.4 |
| 20260831004115 | 31 | 170 | 0.0 | 1.6 | 0.00 | 0.00 | 0.00 | 46 | 1013.5 |
| 20260831003611 | 30 | 197 | 0.0 | 1.6 | 0.00 | 0.00 | 0.00 | 49 | 1013.7 |
| 20260831003107 | 31 | 219 | 0.0 | 0.0 | 0.00 | 0.00 | 0.00 | 47 | 1013.5 |
| 20260831002605 | 32 | 228 | 0.0 | 0.0 | 0.00 | 0.00 | 0.00 | 43 | 1013.5 |
| 20260831002100 | 33 | 213 | 0.0 | 1.6 | 0.00 | 0.00 | 0.00 | 40 | 1013.4 |
| 20260831001555 | 33 | 228 | 0.0 | 1.6 | 0.00 | 0.00 | 0.00 | 38 | 1013.7 |
| 20260831001052 | 33 | 126 | 4.8 | 6.4 | 0.00 | 0.00 | 0.00 | 37 | 1013.5 |
| 20260831000548 | 33 | 213 | 6.4 | 8.0 | 0.00 | 0.00 | 0.00 | 37 | 1013.4 |
| 20260831000047 | 34 | 200 | 1.6 | 4.8 | 0.00 | 0.00 | 0.00 | 38 | 1013.5 |
| 20260830235546 | 35 | 246 | 0.0 | 1.6 | 0.00 | 0.00 | 0.00 | 37 | 1013.6 |
| 20260830235042 | 35 | 212 | 3.2 | 4.8 | 0.00 | 0.00 | 0.00 | 35 | 1013.5 |
| 20260830234542 | 35 | 206 | 8.0 | 11.3 | 0.00 | 0.00 | 0.00 | 35 | 1013.7 |
| 20260830234038 | 35 | 213 | 3.2 | 4.8 | 0.00 | 0.00 | 0.00 | 35 | 1013.7 |
| 20260830233533 | 35 | 169 | 4.8 | 6.4 | 0.00 | 0.00 | 0.00 | 34 | 1013.5 |
| 20260830233029 | 35 | 213 | 4.8 | 6.4 | 0.00 | 0.00 | 0.00 | 35 | 1013.6 |
| 20260830232525 | 35 | 316 | 6.4 | 11.3 | 0.00 | 0.00 | 0.00 | 33 | 1013.6 |
| 20260830232021 | 36 | 182 | 8.0 | 11.3 | 0.00 | 0.00 | 0.00 | 32 | 1013.7 |
| 20260830231516 | 36 | 199 | 9.7 | 12.9 | 0.00 | 0.00 | 0.00 | 32 | 1013.7 |